Volver al catálogo

STARLINK-32136

ActivoComunicacionesVLEO
NORAD 61515·PAYLOAD·🇺🇸 United States

Lanzado Oct 15, 2024 desde Cape Canaveral Space Force Station

Loading…

Próximos Pases (próximas 24 horas)

TLE

ActualizadoSource: CelesTrak SupGP

Época: Sep 15, 2026, 03:02 UTC

1 61515C 24183G   26258.12687500  .00069311  00000+0  22283-2 0  2584
2 61515  53.1588 341.2542 0001070  97.1627 284.8780 15.31674942    11

Sigue STARLINK-32136 en tiempo real con AllMySat

Download on the App Store